User: anonymous   Login
Location: Unspecified
(0.0000°N, 0.0000°E)
Time: 12:14:24
(UTC+02:00)
Language:

Cosmos 494 Rocket - Orbit

View from above orbital plane
View from above orbital plane
View from above satellite
View from above satellite

Ground track
Ground track

The orbit data is extracted from the following two-line orbital elements,

1 06061U 72043B   16272.09880002  .00000097  00000-0  38589-4 0  9997
2 06061  74.0558 304.1930 0019136 143.4209 216.8257 14.40475214320577
Epoch (UTC): 28 September 2016 02:22:16
Eccentricity: 0.0019136
inclination: 74.0558°
perigee height: 743 km
apogee height: 770 km
right ascension of ascending node: 304.1930°
argument of perigee: 143.4209°
revolutions per day: 14.40475214
mean anomaly at epoch: 216.8257°
orbit number at epoch: 32057

The dashed part of the orbit path shows where the satellite is in the earth's shadow,  

DLR